N4DWK Weather Reports


Display with metric or nautical units.
time (UTC)temp
F
wind
direction
speed
MPH
gust
MPH
rain 1hr
in
rain 24hr
in
rain mn
in
humidity
%
barometer
mb
20260507144005 57 51 3.0 15.0 0.00 0.06 0.04 81 1011.8
20260507143505 57 46 2.0 12.0 0.00 0.10 0.04 81 1011.8
20260507143004 57 31 2.0 10.0 0.00 0.12 0.04 82 1012.0
20260507142505 57 21 5.0 10.0 0.00 0.14 0.04 82 1012.1
20260507142005 57 13 1.0 8.0 0.00 0.15 0.04 82 1012.2
20260507141504 57 75 3.0 8.0 0.00 0.17 0.04 82 1012.1
20260507141006 57 96 2.0 8.0 0.00 0.18 0.04 82 1012.1
20260507140504 57 37 4.0 8.0 0.00 0.19 0.04 83 1012.3
20260507140006 57 355 3.0 8.0 0.00 0.19 0.04 83 1012.3
20260507135504 57 1 3.0 12.0 0.00 0.19 0.04 82 1012.3
20260507135004 57 22 5.0 12.0 0.00 0.20 0.04 82 1012.3
20260507134506 57 88 3.0 12.0 0.00 0.20 0.04 83 1012.4
20260507134004 57 52 3.0 12.0 0.00 0.20 0.04 83 1012.2
20260507133505 57 351 1.0 8.0 0.00 0.20 0.04 84 1012.0
20260507133004 57 297 3.0 10.0 0.00 0.20 0.04 85 1012.0
20260507132505 57 40 3.0 10.0 0.00 0.20 0.04 86 1011.9
20260507132004 57 48 2.0 8.0 0.00 0.20 0.04 86 1011.8
20260507131505 57 27 2.0 6.0 0.00 0.20 0.04 87 1012.1
20260507131004 57 53 3.0 8.0 0.00 0.20 0.04 87 1012.1
20260507130504 57 39 2.0 9.0 0.00 0.20 0.04 88 1012.0
20260507130005 57 56 3.0 9.0 0.00 0.20 0.04 88 1011.8
20260507125504 57 27 3.0 8.0 0.00 0.20 0.04 89 1011.8
20260507125004 57 33 2.0 6.0 0.00 0.20 0.04 90 1011.9
20260507124504 57 351 3.0 6.0 0.00 0.20 0.04 90 1011.8
20260507124004 57 17 3.0 7.0 0.00 0.20 0.04 89 1011.8
20260507123504 57 345 3.0 8.0 0.00 0.20 0.04 89 1011.7
20260507123005 57 349 2.0 8.0 0.00 0.20 0.04 89 1011.9
20260507122504 57 7 2.0 7.0 0.00 0.20 0.04 89 1011.9
20260507122005 57 5 3.0 7.0 0.00 0.20 0.04 89 1011.9
20260507121504 57 19 4.0 8.0 0.00 0.20 0.04 89 1011.6
20260507121005 57 22 2.0 8.0 0.00 0.20 0.04 89 1011.6
20260507120505 56 8 3.0 9.0 0.00 0.20 0.04 89 1011.5
20260507120006 56 50 3.0 9.0 0.00 0.20 0.04 88 1011.6
20260507115505 56 111 1.0 9.0 0.00 0.20 0.04 88 1011.7
20260507115004 56 118 3.0 9.0 0.00 0.20 0.04 88 1011.8
20260507114505 56 45 2.0 9.0 0.00 0.20 0.04 88 1011.8
20260507114005 56 14 3.0 8.0 0.00 0.20 0.04 89 1011.8
20260507113505 56 5 3.0 8.0 0.00 0.20 0.04 88 1011.8
20260507113005 56 37 2.0 8.0 0.00 0.20 0.04 89 1011.7
20260507112504 56 18 2.0 8.0 0.00 0.20 0.04 89 1011.5
20260507112004 56 41 2.0 7.0 0.00 0.20 0.04 89 1011.4
20260507111506 55 84 3.0 7.0 0.00 0.20 0.04 90 1011.3
20260507111005 55 30 2.0 5.0 0.00 0.20 0.04 90 1011.1
20260507110504 55 37 2.0 5.0 0.00 0.20 0.04 91 1011.4
20260507110004 55 104 2.0 5.0 0.00 0.20 0.04 91 1011.5
20260507105505 55 26 1.0 5.0 0.00 0.20 0.04 91 1011.3
20260507105005 55 35 2.0 5.0 0.00 0.20 0.04 91 1011.2
20260507104504 55 37 2.0 5.0 0.00 0.20 0.04 91 1011.1
20260507104005 55 32 0.0 5.0 0.00 0.20 0.04 92 1011.0
20260507103504 55 5 1.0 5.0 0.00 0.20 0.04 92 1011.0
20260507103006 55 28 2.0 5.0 0.00 0.20 0.04 92 1010.8
20260507102504 56 353 2.0 7.0 0.00 0.20 0.04 92 1010.8
20260507102006 56 348 3.0 7.0 0.03 0.20 0.04 92 1010.6
20260507101504 56 321 2.0 8.0 0.04 0.20 0.04 92 1010.4
20260507101004 56 333 2.0 8.0 0.04 0.20 0.04 92 1010.5
20260507100505 56 51 3.0 7.0 0.04 0.20 0.04 92 1010.8
20260507100005 56 6 3.0 9.0 0.04 0.20 0.04 92 1011.0
20260507095504 56 4 2.0 9.0 0.04 0.20 0.04 92 1011.1
20260507095006 57 21 3.0 6.0 0.04 0.20 0.04 92 1011.1
20260507094505 57 47 2.0 5.0 0.04 0.20 0.04 92 1010.9
20260507094005 57 36 2.0 7.0 0.04 0.20 0.04 92 1010.9
20260507093504 57 9 2.0 8.0 0.04 0.20 0.04 92 1011.0
20260507093005 57 5 3.0 8.0 0.04 0.20 0.04 92 1011.2
20260507092504 57 51 2.0 8.0 0.04 0.20 0.04 92 1011.1
20260507092004 57 44 4.0 12.0 0.01 0.17 0.01 92 1010.9
20260507091505 58 9 2.0 12.0 0.00 0.16 0.00 91 1010.9
20260507091004 58 76 2.0 10.0 0.00 0.16 0.00 91 1010.7
20260507090503 58 13 3.0 7.0 0.00 0.16 0.00 91 1010.7
20260507090005 58 55 2.0 12.0 0.00 0.16 0.00 91 1010.7
20260507085504 59 9 4.0 12.0 0.00 0.16 0.00 91 1010.7
20260507085004 59 5 2.0 9.0 0.00 0.16 0.00 91 1010.7
20260507084505 59 1 4.0 12.0 0.00 0.16 0.00 91 1010.6
20260507084004 60 32 3.0 13.0 0.00 0.16 0.00 90 1010.5
20260507083504 60 352 6.0 16.0 0.00 0.16 0.00 89 1010.5
20260507083005 61 9 5.0 16.0 0.00 0.16 0.00 89 1010.4
20260507082503 62 22 5.0 14.0 0.00 0.16 0.00 88 1010.1
20260507082004 63 31 3.0 12.0 0.00 0.16 0.00 88 1010.2
20260507081504 65 36 5.0 12.0 0.00 0.16 0.00 90 1010.3
20260507081004 66 8 6.0 10.0 0.00 0.16 0.00 91 1010.2
20260507080504 67 35 3.0 6.0 0.00 0.16 0.00 92 1010.0
20260507080004 67 4 2.0 6.0 0.00 0.16 0.00 92 1009.7
20260507075504 67 0 2.0 6.0 0.00 0.16 0.00 91 1009.5
20260507075004 67 23 3.0 5.0 0.00 0.16 0.00 91 1009.1
20260507074505 67 66 2.0 3.0 0.00 0.16 0.00 91 1009.1
20260507074004 67 331 2.0 3.0 0.00 0.16 0.00 91 1009.2
20260507073503 67 331 0.0 2.0 0.00 0.16 0.00 91 1009.5
20260507073004 67 331 0.0 3.0 0.00 0.16 0.00 90 1009.6
20260507072504 67 331 0.0 3.0 0.00 0.16 0.00 90 1009.3
20260507072004 67 331 1.0 3.0 0.00 0.16 0.00 90 1009.5
20260507071504 68 328 0.0 3.0 0.00 0.16 0.00 89 1009.5
20260507071003 68 328 0.0 2.0 0.00 0.16 0.00 89 1009.6
20260507070504 68 327 0.0 3.0 0.00 0.16 0.00 89 1009.4
20260507070009 68 328 1.0 3.0 0.00 0.16 0.00 89 1009.4
20260507065503 68 223 0.0 3.0 0.00 0.16 0.00 88 1009.2
20260507065004 68 220 2.0 5.0 0.00 0.16 0.00 88 1008.9
20260507064505 69 201 2.0 5.0 0.00 0.16 0.00 87 1008.8
20260507064004 69 209 1.0 3.0 0.00 0.16 0.00 87 1009.0
20260507063503 69 209 0.0 6.0 0.00 0.16 0.00 87 1009.0
20260507063005 69 210 1.0 6.0 0.00 0.16 0.00 86 1008.7
20260507062503 69 218 3.0 5.0 0.00 0.16 0.00 86 1008.7
20260507062004 69 217 2.0 5.0 0.00 0.16 0.00 86 1008.7
20260507061504 69 234 3.0 5.0 0.00 0.16 0.00 86 1008.5
20260507061004 69 220 2.0 3.0 0.00 0.16 0.00 86 1008.5
20260507060504 69 226 2.0 3.0 0.00 0.16 0.00 86 1008.5
20260507060004 69 231 1.0 5.0 0.00 0.16 0.00 86 1008.5
20260507055506 69 242 3.0 5.0 0.00 0.16 0.00 86 1008.6
20260507055005 69 219 2.0 5.0 0.00 0.16 0.00 86 1008.6
20260507054503 69 233 2.0 3.0 0.00 0.16 0.00 86 1008.8
20260507054004 69 230 2.0 3.0 0.00 0.16 0.00 86 1008.6
20260507053504 69 228 1.0 5.0 0.00 0.16 0.00 86 1008.6
20260507053005 69 228 1.0 5.0 0.00 0.16 0.00 86 1008.7
20260507052504 69 230 2.0 5.0 0.00 0.16 0.00 85 1008.7
20260507052004 69 218 2.0 7.0 0.00 0.16 0.00 86 1008.8
20260507051504 69 216 2.0 7.0 0.00 0.16 0.00 86 1009.1
20260507051004 69 229 2.0 8.0 0.00 0.16 0.00 86 1009.2
20260507050504 69 219 2.0 8.0 0.00 0.16 0.00 86 1009.5
20260507050003 69 220 3.0 8.0 0.00 0.16 0.00 86 1009.6
20260507045503 69 228 3.0 7.0 0.00 0.16 0.00 86 1009.8
20260507045003 69 229 2.0 5.0 0.00 0.16 0.00 86 1009.9
20260507044504 69 223 2.0 6.0 0.00 0.16 0.00 86 1009.9
20260507044006 69 218 3.0 6.0 0.00 0.16 0.00 86 1009.9
20260507043506 69 207 1.0 6.0 0.00 0.16 0.00 86 1009.9
20260507043006 69 219 3.0 7.0 0.00 0.16 0.00 86 1010.1
20260507042506 69 231 3.0 7.0 0.00 0.16 0.00 86 1010.2
20260507042006 69 226 3.0 6.0 0.00 0.16 0.00 86 1010.2
20260507041506 69 224 2.0 5.0 0.00 0.16 0.00 86 1010.0
20260507041006 69 213 3.0 5.0 0.00 0.16 0.00 86 1009.7
20260507040507 69 212 3.0 6.0 0.00 0.16 0.00 86 1009.5
20260507040006 69 211 3.0 6.0 0.00 0.16 0.00 86 1009.7
20260507035506 69 229 3.0 5.0 0.00 0.16 0.16 86 1009.8
20260507035006 69 230 2.0 3.0 0.00 0.16 0.16 86 1009.9
20260507034506 69 201 2.0 5.0 0.00 0.16 0.16 86 1010.1
20260507034006 69 212 3.0 5.0 0.00 0.16 0.16 86 1010.0
20260507033506 69 223 3.0 5.0 0.00 0.16 0.16 86 1010.0
20260507033006 69 199 2.0 7.0 0.00 0.16 0.16 86 1010.0
20260507032505 69 220 5.0 7.0 0.00 0.16 0.16 86 1009.8
20260507032006 69 220 2.0 6.0 0.00 0.16 0.16 86 1009.6
20260507031507 69 218 2.0 6.0 0.00 0.16 0.16 87 1009.5
20260507031007 69 220 2.0 5.0 0.00 0.16 0.16 87 1009.5
20260507030506 69 217 2.0 5.0 0.00 0.16 0.16 87 1009.4
20260507030006 69 220 2.0 5.0 0.00 0.16 0.16 87 1009.4
20260507025506 69 221 2.0 5.0 0.00 0.16 0.16 87 1009.4
20260507025006 69 220 2.0 5.0 0.00 0.16 0.16 86 1009.3
20260507024507 69 226 1.0 5.0 0.00 0.16 0.16 86 1009.2
20260507024006 69 213 1.0 7.0 0.00 0.16 0.16 86 1009.2
20260507023507 69 224 3.0 7.0 0.00 0.16 0.16 86 1009.5
20260507023006 69 226 1.0 6.0 0.00 0.16 0.16 86 1009.6
20260507022505 69 227 1.0 6.0 0.00 0.16 0.16 86 1009.6
20260507022006 69 237 3.0 8.0 0.00 0.16 0.16 86 1009.7
20260507021506 69 222 2.0 8.0 0.00 0.16 0.16 86 1009.7
20260507021006 69 220 3.0 8.0 0.00 0.16 0.16 86 1009.8
20260507020506 69 231 2.0 5.0 0.00 0.16 0.16 86 1009.9
20260507020008 69 232 2.0 3.0 0.00 0.16 0.16 86 1009.9
20260507015507 69 214 2.0 3.0 0.00 0.16 0.16 86 1009.9
20260507015006 69 214 1.0 3.0 0.00 0.16 0.16 86 1009.9
20260507014507 69 213 1.0 5.0 0.00 0.16 0.16 86 1010.0
20260507014006 69 238 2.0 5.0 0.00 0.16 0.16 86 1009.9
20260507013507 69 218 1.0 3.0 0.00 0.16 0.16 86 1010.0
20260507013006 69 219 2.0 3.0 0.00 0.16 0.16 86 1010.0
20260507012505 69 221 2.0 3.0 0.00 0.16 0.16 86 1009.9
20260507012005 69 221 2.0 3.0 0.00 0.16 0.16 86 1009.9
20260507011506 69 215 0.0 3.0 0.00 0.16 0.16 86 1009.9
20260507011006 69 221 0.0 3.0 0.00 0.16 0.16 85 1009.9
20260507010506 69 220 1.0 3.0 0.00 0.16 0.16 85 1009.8
20260507010006 69 222 2.0 3.0 0.00 0.16 0.16 85 1009.7
20260507005505 69 222 2.0 3.0 0.00 0.16 0.16 84 1009.5
20260507005006 69 222 1.0 3.0 0.00 0.16 0.16 84 1009.5
20260507004505 69 222 2.0 3.0 0.00 0.16 0.16 84 1009.8
20260507004007 69 213 2.0 3.0 0.00 0.16 0.16 84 1009.8
20260507003505 69 221 2.0 3.0 0.00 0.16 0.16 84 1010.0
20260507003005 69 207 3.0 3.0 0.00 0.16 0.16 83 1010.0
20260507002506 70 205 1.0 3.0 0.00 0.16 0.16 83 1009.9
20260507002006 70 213 2.0 5.0 0.00 0.16 0.16 83 1009.9
20260507001506 70 224 3.0 5.0 0.00 0.16 0.16 83 1009.9
20260507001006 70 230 2.0 6.0 0.00 0.16 0.16 82 1010.0
20260507000506 70 230 3.0 6.0 0.00 0.16 0.16 82 1010.0
20260507000006 70 230 3.0 6.0 0.00 0.16 0.16 82 1010.0
20260506235506 70 224 3.0 6.0 0.00 0.16 0.16 82 1009.9
20260506235006 70 220 3.0 6.0 0.00 0.16 0.16 81 1009.7
20260506234505 71 228 3.0 6.0 0.00 0.16 0.16 81 1009.7
20260506234006 71 227 3.0 6.0 0.00 0.16 0.16 81 1009.5
20260506233506 71 225 2.0 6.0 0.00 0.16 0.16 81 1009.5
20260506233006 71 208 3.0 6.0 0.00 0.16 0.16 80 1009.5
20260506232505 71 220 3.0 8.0 0.00 0.16 0.16 80 1009.5
20260506232007 71 223 3.0 8.0 0.00 0.16 0.16 80 1009.5
20260506231506 71 218 3.0 7.0 0.00 0.16 0.16 80 1009.5
20260506231006 71 224 3.0 7.0 0.00 0.16 0.16 79 1009.6
20260506230506 71 219 2.0 8.0 0.00 0.16 0.16 80 1009.4
20260506230006 71 219 5.0 8.0 0.00 0.16 0.16 79 1009.5
20260506225506 71 217 3.0 6.0 0.00 0.16 0.16 79 1009.5
20260506225006 71 204 3.0 5.0 0.00 0.16 0.16 79 1009.5
20260506224505 71 226 2.0 7.0 0.00 0.16 0.16 79 1009.6
20260506224006 71 224 3.0 7.0 0.00 0.16 0.16 79 1009.5
20260506223506 71 227 2.0 9.0 0.00 0.16 0.16 79 1009.6
20260506223006 71 214 5.0 9.0 0.00 0.16 0.16 78 1009.5
20260506222506 71 195 3.0 8.0 0.00 0.16 0.16 78 1009.6
20260506222005 71 223 3.0 10.0 0.00 0.16 0.16 78 1009.6
20260506221506 71 227 5.0 10.0 0.00 0.16 0.16 78 1009.6
20260506221005 71 220 5.0 10.0 0.00 0.16 0.16 78 1009.6
20260506220505 71 230 3.0 9.0 0.00 0.16 0.16 78 1009.5
20260506220006 71 221 5.0 9.0 0.00 0.16 0.16 78 1009.5
20260506215506 71 227 5.0 8.0 0.00 0.16 0.16 78 1009.5
20260506215006 71 197 3.0 9.0 0.00 0.16 0.16 78 1009.5
20260506214505 71 223 4.0 9.0 0.00 0.16 0.16 78 1009.5
20260506214005 71 219 5.0 9.0 0.00 0.16 0.16 78 1009.6
20260506213506 71 230 4.0 9.0 0.00 0.16 0.16 78 1009.6
20260506213006 71 213 4.0 10.0 0.00 0.16 0.16 78 1009.6
20260506212506 71 228 3.0 10.0 0.00 0.16 0.16 79 1009.6
20260506212006 71 221 3.0 12.0 0.00 0.16 0.16 79 1009.8
20260506211506 71 234 5.0 12.0 0.00 0.16 0.16 79 1009.8
20260506211006 71 219 2.0 12.0 0.00 0.16 0.16 80 1009.7
20260506210506 71 222 4.0 12.0 0.00 0.16 0.16 80 1009.6
20260506210006 71 222 4.0 9.0 0.00 0.16 0.16 81 1009.6
20260506205506 71 218 4.0 9.0 0.00 0.16 0.16 80 1009.7
20260506205006 71 238 2.0 8.0 0.00 0.16 0.16 82 1009.8
20260506204505 71 232 2.0 8.0 0.00 0.16 0.16 82 1009.8
20260506204006 71 222 2.0 8.0 0.00 0.16 0.16 83 1009.7
20260506203505 70 225 4.0 8.0 0.00 0.16 0.16 85 1009.6
20260506203006 69 218 2.0 3.0 0.00 0.16 0.16 85 1009.5
20260506202506 69 198 0.0 0.0 0.00 0.16 0.16 85 1009.6
20260506202007 69 198 0.0 3.0 0.00 0.16 0.16 85 1009.7
20260506201507 69 198 0.0 3.0 0.00 0.16 0.16 85 1009.7
20260506201007 69 233 2.0 3.0 0.00 0.16 0.16 85 1009.8
20260506200506 69 239 1.0 3.0 0.00 0.16 0.16 85 1009.9
20260506200006 68 197 1.0 5.0 0.01 0.16 0.16 85 1009.8
20260506195505 68 229 2.0 5.0 0.01 0.16 0.16 86 1009.7
20260506195005 68 207 2.0 5.0 0.01 0.16 0.16 86 1009.2
20260506194506 68 238 2.0 3.0 0.01 0.16 0.16 86 1009.3
20260506194006 67 221 2.0 7.0 0.01 0.16 0.16 87 1009.0
20260506193506 67 196 3.0 7.0 0.01 0.16 0.16 87 1009.1
20260506193006 67 226 4.0 7.0 0.01 0.16 0.16 87 1009.1
20260506192507 67 213 3.0 7.0 0.01 0.16 0.16 88 1009.3
20260506192006 66 223 3.0 7.0 0.01 0.16 0.16 88 1009.5
20260506191506 66 219 3.0 7.0 0.01 0.16 0.16 89 1009.7
20260506191006 66 223 3.0 6.0 0.01 0.16 0.16 89 1009.9
20260506190505 66 203 3.0 7.0 0.01 0.16 0.16 89 1010.0
20260506190007 66 221 5.0 8.0 0.00 0.15 0.15 90 1010.3
20260506185505 66 230 3.0 8.0 0.00 0.15 0.15 90 1010.4
20260506185006 65 227 2.0 8.0 0.00 0.15 0.15 90 1010.2
20260506184506 65 216 4.0 8.0 0.00 0.15 0.15 90 1010.2
20260506184006 65 229 4.0 12.0 0.00 0.15 0.15 90 1010.2
20260506183506 65 231 6.0 12.0 0.00 0.15 0.15 89 1010.4
20260506183006 65 231 4.0 8.0 0.00 0.15 0.15 89 1010.4
20260506182506 65 222 3.0 6.0 0.00 0.15 0.15 89 1010.4
20260506182006 66 220 3.0 8.0 0.00 0.15 0.15 89 1010.6
20260506181506 66 233 3.0 8.0 0.00 0.15 0.15 89 1010.8
20260506181005 66 225 4.0 10.0 0.00 0.15 0.15 89 1010.9
20260506180505 66 230 3.0 10.0 0.00 0.15 0.15 89 1011.0
20260506180006 66 234 6.0 10.0 0.00 0.15 0.15 88 1011.0
20260506175505 66 226 3.0 7.0 0.00 0.15 0.15 89 1011.0
20260506175005 66 238 5.0 9.0 0.00 0.15 0.15 89 1011.1
20260506174505 66 228 5.0 9.0 0.00 0.15 0.15 89 1011.1
20260506174006 65 235 3.0 9.0 0.00 0.15 0.15 89 1011.0
20260506173505 65 224 5.0 8.0 0.00 0.15 0.15 89 1011.0
20260506173006 65 224 4.0 7.0 0.00 0.15 0.15 90 1010.9
20260506172506 65 227 3.0 12.0 0.00 0.15 0.15 90 1011.0
20260506172006 65 232 3.0 12.0 0.00 0.15 0.15 90 1011.0
20260506171505 65 226 3.0 7.0 0.00 0.15 0.15 90 1011.0
20260506171005 64 223 3.0 7.0 0.00 0.15 0.15 90 1010.9
20260506170506 64 219 4.0 7.0 0.00 0.15 0.15 91 1011.0
20260506170007 64 217 2.0 6.0 0.00 0.15 0.15 90 1011.3
20260506165506 64 221 2.0 6.0 0.00 0.15 0.15 90 1011.6
20260506165005 64 218 3.0 8.0 0.00 0.15 0.15 91 1011.4
20260506164506 64 239 3.0 8.0 0.00 0.15 0.15 91 1011.4
20260506164006 64 219 4.0 10.0 0.00 0.15 0.15 91 1011.5
20260506163505 64 221 3.0 10.0 0.00 0.15 0.15 91 1011.4
20260506163005 64 208 3.0 9.0 0.00 0.15 0.15 91 1011.5
20260506162505 64 214 5.0 8.0 0.00 0.15 0.15 91 1011.5
20260506162006 64 210 3.0 7.0 0.00 0.15 0.15 92 1011.2
20260506161505 63 242 3.0 7.0 0.01 0.15 0.15 92 1011.2
20260506161005 63 222 3.0 8.0 0.01 0.15 0.15 92 1011.2
20260506160505 63 231 3.0 8.0 0.01 0.15 0.15 92 1011.2
20260506160005 63 224 3.0 8.0 0.01 0.15 0.15 92 1011.4
20260506155505 63 233 3.0 7.0 0.01 0.15 0.15 92 1011.2
20260506155005 63 226 3.0 7.0 0.01 0.15 0.15 92 1011.4
20260506154506 63 166 2.0 7.0 0.01 0.15 0.15 92 1011.4
20260506154005 63 237 4.0 7.0 0.01 0.15 0.15 92 1011.6
20260506153505 63 234 2.0 6.0 0.05 0.15 0.15 92 1011.6
20260506153005 63 216 2.0 5.0 0.07 0.15 0.15 92 1011.8
20260506152505 63 218 3.0 5.0 0.09 0.15 0.15 93 1011.9
20260506152005 63 231 2.0 3.0 0.10 0.15 0.15 93 1011.9
20260506151505 63 220 2.0 5.0 0.11 0.14 0.14 92 1012.0
20260506151005 63 226 1.0 5.0 0.12 0.14 0.14 92 1012.0
20260506150505 63 236 0.0 3.0 0.13 0.14 0.14 92 1012.1
20260506150006 63 233 1.0 3.0 0.13 0.14 0.14 92 1012.1
20260506145504 62 227 1.0 3.0 0.13 0.14 0.14 92 1012.1
20260506145005 62 226 1.0 5.0 0.14 0.14 0.14 91 1012.1
20260506144505 62 211 1.0 5.0 0.14 0.14 0.14 90 1012.1